CW9119 Weather Reports


Display with metric or nautical units.
time (UTC)temp
F
wind
direction
speed
MPH
gust
MPH
rain 1hr
in
rain 24hr
in
rain mn
in
humidity
%
barometer
mb
20260510190111 55 144 0.0 0.0 0.00 0.00 0.00 67 1008.2
20260510185111 56 144 0.0 0.0 0.00 0.00 0.00 66 1008.1
20260510183110 58 144 0.0 0.0 0.00 0.00 0.00 60 1008.2
20260510180110 60 144 0.0 0.0 0.00 0.00 0.00 57 1008.4
20260510174110 61 144 0.0 0.0 0.00 0.00 0.00 56 1008.6
20260510173110 61 144 0.0 5.0 0.00 0.00 0.00 54 1008.7
20260510170110 62 144 0.0 0.0 0.00 0.00 0.00 54 1008.9
20260510165110 62 144 0.0 1.0 0.00 0.00 0.00 54 1008.8
20260510163110 63 144 0.0 5.0 0.00 0.00 0.00 50 1008.8
20260510162110 64 144 1.0 7.0 0.00 0.00 0.00 48 1008.8
20260510161109 64 144 1.0 7.0 0.00 0.00 0.00 47 1008.9
20260510154109 65 143 0.0 1.0 0.00 0.00 0.00 50 1009.4
20260510153109 64 144 0.0 1.0 0.00 0.00 0.00 50 1009.3
20260510151109 64 144 1.0 7.0 0.00 0.00 0.00 49 1009.5
20260510150109 64 144 0.0 1.0 0.00 0.00 0.00 51 1009.7
20260510145109 64 144 0.0 1.0 0.00 0.00 0.00 51 1009.9
20260510140109 65 169 4.0 10.0 0.00 0.00 0.00 48 1010.3
20260510135109 65 309 0.0 5.0 0.00 0.00 0.00 48 1010.4
20260510133113 66 289 2.0 13.0 0.00 0.00 0.00 46 1010.8
20260510124113 65 163 1.0 6.0 0.00 0.00 0.00 52 1011.3
20260510120113 66 132 0.0 6.0 0.00 0.00 0.00 56 1012.0
20260510115113 65 28 0.0 4.0 0.00 0.00 0.00 56 1012.1
20260510113113 64 164 0.0 5.0 0.00 0.00 0.00 53 1012.3
20260510111113 63 144 0.0 6.0 0.00 0.00 0.00 55 1012.6
20260510105112 62 83 1.0 6.0 0.00 0.00 0.00 60 1012.7
20260510104112 61 46 1.0 7.0 0.00 0.00 0.00 58 1012.8
20260510103112 61 105 1.0 7.0 0.00 0.00 0.00 60 1012.8
20260510101112 61 76 1.0 5.0 0.00 0.00 0.00 59 1013.2
20260510100112 60 76 1.0 5.0 0.00 0.00 0.00 61 1013.3
20260510091112 59 91 2.0 7.0 0.00 0.00 0.00 63 1013.7
20260510090112 58 135 0.0 6.0 0.00 0.00 0.00 65 1014.2
20260510084112 58 58 2.0 7.0 0.00 0.00 0.00 66 1014.4
20260510083111 57 121 1.0 6.0 0.00 0.00 0.00 65 1014.5
20260510081111 55 128 1.0 10.0 0.00 0.00 0.00 68 1014.4
20260510080111 55 139 4.0 10.0 0.00 0.00 0.00 66 1014.5
20260510075111 55 157 2.0 8.0 0.00 0.00 0.00 67 1014.6
20260510072111 53 140 2.0 8.0 0.00 0.00 0.00 70 1015.1
20260510070111 51 134 3.0 8.0 0.00 0.00 0.00 76 1015.2
20260510065111 50 68 0.0 2.0 0.00 0.00 0.00 84 1015.1
20260510064111 49 67 0.0 4.0 0.00 0.00 0.00 89 1015.1
20260510063111 48 65 0.0 5.0 0.00 0.00 0.00 92 1015.2
20260510060110 44 67 0.0 0.0 0.00 0.00 0.00 95 1015.3
20260510055110 43 67 0.0 0.0 0.00 0.00 0.00 95 1015.2
20260510045110 37 67 0.0 0.0 0.00 0.00 0.00 94 1015.0
20260510040110 35 67 0.0 0.0 0.00 0.00 0.00 93 1014.6
20260510033109 35 67 0.0 0.0 0.00 0.00 0.00 93 1014.8
20260510023109 35 67 0.0 0.0 0.00 0.00 0.00 93 1015.5
20260510022109 36 67 0.0 0.0 0.00 0.00 0.00 93 1015.6
20260510020109 36 67 0.0 0.0 0.00 0.00 0.00 93 1015.5
20260510013111 36 67 0.0 0.0 0.00 0.00 0.00 92 1015.8
20260510012111 36 67 0.0 0.0 0.00 0.00 0.00 92 1016.0
20260510011110 36 67 0.0 0.0 0.00 0.00 0.00 92 1016.1
20260510005110 36 67 0.0 0.0 0.00 0.00 0.00 92 1016.3
20260510004110 36 67 0.0 0.0 0.00 0.00 0.00 92 1016.2
20260510002110 37 67 0.0 1.0 0.00 0.00 0.00 92 1016.6
20260510001110 37 67 0.0 0.0 0.00 0.00 0.00 91 1016.6
20260510000110 37 67 0.0 0.0 0.00 0.00 0.00 91 1016.7
20260509233110 38 67 0.0 0.0 0.00 0.00 0.00 91 1016.7
20260509232110 38 67 0.0 0.0 0.00 0.00 0.00 91 1016.7
20260509231110 38 67 0.0 0.0 0.00 0.00 0.00 91 1016.9
20260509230110 38 67 0.0 0.0 0.00 0.00 0.00 90 1017.0
20260509221110 40 67 0.0 0.0 0.00 0.00 0.00 89 1017.4
20260509214113 41 67 0.0 0.0 0.00 0.00 0.00 89 1017.3
20260509211113 42 67 0.0 0.0 0.00 0.00 0.00 88 1017.6
20260509205113 42 67 0.0 0.0 0.00 0.00 0.00 87 1017.7
20260509202112 44 67 0.0 0.0 0.00 0.00 0.00 86 1017.7
20260509201112 44 67 0.0 0.0 0.00 0.00 0.00 85 1017.6
20260509200112 45 67 0.0 0.0 0.00 0.00 0.00 85 1017.4
20260509191112 47 67 0.0 0.0 0.00 0.00 0.00 82 1017.5